Regional Weather Roundup
Issued by NWS

Home | Current Version | Previous Version | Text Only | Print | Product List | Glossary On
Versions: 1 2 3 4 5 6 7 8 9 10 11 12 13 14 15 16 17 18 19 20 21 22 23 24 25 26 27 28 29 30 31 32 33 34 35 36 37 38 39 40 41 42 43 44 45 46 47 48 49 50
000
ASUS43 KMKX 220921
RWRWI

WISCONSIN REGIONAL WEATHER ROUNDUP
NATIONAL WEATHER SERVICE MILWAUKEE/SULLIVAN WI
400 AM CDT TUE JUL 22 2014

NOTE: "FAIR" INDICATES FEW OR NO CLOUDS BELOW 12,000 FEET WITH NO
SIGNIFICANT WEATHER AND/OR OBSTRUCTIONS TO VISIBILITY.

WIZ001-002-006>008-014>016-023>028-221000-
NORTHWEST WISCONSIN

CITY           SKY/WX    TMP DP  RH WIND       PRES   REMARKS
SUPERIOR ARPT  CLOUDY    67  66  97 W6        29.69F
ASHLAND        CLOUDY    68  65  90 S10G21    29.71F
HAYWARD        CLOUDY    71  68  90 CALM      29.79F
SIREN          CLOUDY    76  71  83 SW3       29.76F
RICE LAKE      CLOUDY    78  71  79 S15       29.81F
LADYSMITH      CLOUDY    75  69  83 S9        29.84F
EAU CLAIRE     CLOUDY    78  72  81 S10       29.82F HX  80
MENOMONIE      CLOUDY    78  72  80 S9        29.82F HX  81
NEW RICHMOND   CLOUDY    79  72  80 S16G22    29.80F HX  81
OSCEOLA        CLOUDY    80  74  83 S10       29.80F HX  84
$$

WIZ003>005-009-010-017-018-221000-
NORTH CENTRAL WISCONSIN

CITY           SKY/WX    TMP DP  RH WIND       PRES   REMARKS
WOODRUFF       CLOUDY    72  67  85 S9        29.87F
RHINELANDER    CLOUDY    73  67  81 SW12      29.90F
EAGLE RIVER    LGT RAIN  72  65  80 S5        29.89F
LAND O LAKES   CLOUDY    73  67  82 S5        29.89F
PHILLIPS       CLOUDY    74  69  86 S7        29.83F
TOMAHAWK       CLOUDY    72  67  83 CALM      29.90F
MEDFORD        CLOUDY    73  68  84 S12       29.89S
MERRILL        CLOUDY    73  69  87 S8        29.89F
$$

WIZ029-030-035-036-043>047-221000-
CENTRAL WISCONSIN

CITY           SKY/WX    TMP DP  RH WIND       PRES   REMARKS
WAUSAU         CLOUDY    73  68  84 S14       29.88F
MOSINEE        CLOUDY    70  68  94 S13       29.89F
MARSHFIELD     CLOUDY    73  68  84 S15G24    29.87F
STEVENS POINT  CLOUDY    71  66  85 S13       29.92F
WAUPACA        CLOUDY    73  69  87 S8        29.93F
WAUTOMA        CLOUDY    73  69  87 S7        29.95F
WISC RAPIDS    CLOUDY    74  68  81 S6        29.92F
CAMP DOUGLAS   CLOUDY    75  71  86 S9        29.91F
$$

WIZ011>013-019>022-031-037>040-048>050-221000-
NORTHEAST WISCONSIN

CITY           SKY/WX    TMP DP  RH WIND       PRES   REMARKS
ANTIGO         CLOUDY    69  67  93 S10       29.93F
STURGEON BAY   PTCLDY    66  63  88 S12       29.95F
GREEN BAY      PTCLDY    71  67  87 S8        29.95F
MANITOWOC      CLEAR     61  59  93 CALM      29.98S FOG
APPLETON       PTCLDY    73  66  78 S13       29.95F
CLINTONVILLE   PTCLDY    72  68  88 S10       29.92F
OSHKOSH        CLOUDY    73  68  84 S13       29.96S
$$

WIZ032>034-041-042-053>061-221000-
SOUTHWEST WISCONSIN

CITY           SKY/WX    TMP DP  RH WIND       PRES   REMARKS
LA CROSSE      CLOUDY    79  69  71 S9G20     29.88F HX  81
SPARTA         CLOUDY    76  66  71 S9        29.90F
VIROQUA        FAIR      74  68  80 S10       29.94F
BOSCOBEL       CLOUDY    77  68  73 S7        29.93F
PRAIRIE DU CHI CLOUDY    78  65  63 S9        29.93F HX  80
PLATTEVILLE    FAIR      73  69  87 S9        29.99F
$$

WIZ056-057-062-063-064-067-068-221000-
SOUTH CENTRAL WISCONSIN

CITY           SKY/WX    TMP DP  RH WIND       PRES   REMARKS
BARABOO/DELLS  PTCLDY    74  66  77 S13       29.95F
LONE ROCK      MOCLDY    79  69  71 CALM      29.96F HX  81
WATERTOWN      MOCLDY    70  67  90 S3        30.00R
MADISON        CLEAR     75  68  78 S12       29.99S
MIDDLETON      FAIR      74  67  79 S12       29.98F
MONROE         CLEAR     70  68  94 S15       30.01R
JANESVILLE     CLOUDY    73  64  73 S9        30.01R
$$

WIZ051-052-058>065-066-070>072-221000-
SOUTHEAST WISCONSIN

CITY           SKY/WX    TMP DP  RH WIND       PRES   REMARKS
MILWAUKEE      CLEAR     71  65  81 SW7       30.01F
WAUKESHA       CLEAR     68  63  83 S5        30.02F
MILWAUKEE/TIMM CLEAR     72  63  73 SW7       30.01S
RACINE         CLEAR     71  65  81 SW10      30.03F
BURLINGTON     CLEAR     67  64  92 S6        30.02S
KENOSHA        CLEAR     70  65  84 S9        30.03F
FOND DU LAC    MOCLDY    73  67  81 S13G22    29.98S
SHEBOYGAN      CLEAR     70  66  87 S9        29.99S
WEST BEND      CLEAR     70  63  78 S8        30.00S
JUNEAU         PTCLDY    70  53  53 S9        30.01S
$$

LSZ147-162-221000-
LAKE SUPERIOR

STATION/POSITION TIME  TEMP    WIND        PRES    WAVE
                       AIR SEA DIR/SP/G            HT/PER
                 (UTC) (F)     (DEG/KT/KT) (MB)    (FT/S)
W MID LAKE BUOY  0850   53 40  220/ 12/ 14 1007.9R   2/ 3
PORT WING        0807   69     170/ 10/ 35 1009.1F
SAXON HARBOR     0820          220/  4/ 24 1010.5S
$$

LMZ867-665-643>646-221000-
LAKE MICHIGAN

STATION/POSITION TIME  TEMP    WIND        PRES    WAVE
                       AIR SEA DIR/SP/G            HT/PER
                 (UTC) (F)     (DEG/KT/KT) (MB)    (FT/S)
N MID LAKE BUOY  0850   62 56  200/ 14/ 16 1013.8F   2/ 4
NORTHPORT PIER   0800   65     140/  7/  8 1014.2F
KEWAUNEE LAKESHO 0900   56     170/ 10/ 11 1015.5S
SHEBOYGAN LAKESH 0900   68     180/ 12/ 13 1015.3F
PORT WASHINGTON  0800   60     190/  8/ 10 1016.3
ATWATER BUOY     0900   57     160/  8     1016.9F
MILWAUKEE LAKESH 0900   69     190/  8/  9   N/A
S MID LAKE BUOY  0850   71 69  180/ 10/ 12 1016.8F   1
KENOSHA   LAKESH 0900   68     190/  8/  9   N/A
$$

TC  - TEMPERATURE IN CELSIUS
VSB - VISIBILITY IN STATUTE MILES
WCI - WIND CHILL INDEX
HX  - HEAT INDEX




USA.gov is the U.S. government's official web portal to all federal, state and local government web resources and services.